Flag for Finland Weather past 2 weeks in Kotka, Finland

Now
59 °F

Scattered clouds.


Feels Like: 57 °F
Forecast: 58 / 65 °F
Wind: 12 mph from South

Location: Utti

Current Time: Aug 20, 2014 at 8:51:32 AM

Latest Report: Aug 20, 2014 at 8:20 AM


Visibility: N/A

Pressure: 29.65 "Hg

Humidity: 82%

Dew point: 54 °F

Location of KotkaLocation

Historic Weather in Kotka — Graph

°F

Kotka temperature yesterday

Maximum temperature yesterday: 63 °F (at 1:20 PM)
Minimum temperature yesterday: 54 °F (at 10:50 PM)
Average temperature yesterday: 58 °F

Past Weeks' High & Low Weather Summary

 TemperatureHumidityPressure
High86 °F (Aug 5, 2:50 PM)100% (Aug 12, 2:50 AM)30.15 "Hg (Aug 12, 2:50 AM)
Low48 °F (Aug 13, 5:50 AM)26% (Aug 5, 3:50 PM)29.50 "Hg (Aug 19, 4:50 AM)
Average66 °F70%29.76 "Hg
* Reported Aug 5 7:20 AM — Aug 20 7:50 AM, Kotka, Weather by CustomWeather, © 2014

Note: Actual official high and low records may vary slightly from our data, if they occured in-between our weather recording intervals... More about our weather records

Advertising

Kotka weather history for previous 24 hours

 ConditionsComfort  
Time TempWeatherWind HumidityBarometerVisibility
7:50 AM
Aug 20
57 °FScattered clouds.9 mph88%29.65 "HgN/A
7:20 AM55 °FScattered clouds.8 mph94%29.65 "HgN/A
6:50 AM55 °FScattered clouds.8 mph94%29.65 "HgN/A
6:20 AM54 °FClear.7 mph94%29.65 "Hg10 mi
5:50 AM54 °FPassing clouds.7 mph94%29.65 "HgN/A
5:20 AM54 °FPassing clouds.8 mph94%29.65 "HgN/A
4:50 AM54 °FPassing clouds.7 mph94%29.65 "HgN/A
4:20 AM54 °FClear.7 mph94%29.65 "Hg10 mi
3:50 AM54 °FPassing clouds.6 mph94%29.65 "HgN/A
3:20 AM54 °FPassing clouds.7 mph94%29.65 "HgN/A
2:50 AM54 °FPassing clouds.7 mph94%29.65 "HgN/A
2:20 AM54 °FClear.7 mph94%29.65 "Hg10 mi
1:50 AM54 °FClear.7 mph94%29.65 "Hg10 mi
1:20 AM55 °FPassing clouds.7 mph94%29.65 "HgN/A
12:50 AM55 °FPassing clouds.7 mph94%29.65 "HgN/A
12:20 AM54 °FPassing clouds.5 mph100%29.65 "HgN/A
11:50 PM
Aug 19
54 °FSprinkles. Passing clouds.3 mph94%29.65 "HgN/A
11:20 PM54 °FPassing clouds.5 mph94%29.65 "HgN/A
10:50 PM54 °FPassing clouds.6 mph94%29.65 "HgN/A
10:20 PM55 °FPassing clouds.6 mph88%29.65 "HgN/A
9:50 PM57 °FPartly sunny.8 mph88%29.62 "HgN/A
9:20 PM57 °FSprinkles. Partly sunny.12 mph88%29.62 "HgN/A
8:50 PM57 °FPassing clouds.8 mph94%29.62 "HgN/A
8:20 PM57 °FPassing clouds.9 mph88%29.62 "HgN/A
7:50 PM59 °FSunny.12 mph82%29.59 "Hg10 mi
7:20 PM59 °FPassing clouds.14 mph82%29.59 "HgN/A
6:50 PM57 °FSunny.9 mph88%29.59 "Hg10 mi
6:20 PM57 °FSprinkles. Partly sunny.10 mph82%29.56 "HgN/A
5:50 PM57 °FSprinkles. Overcast.13 mph88%29.59 "HgN/A
5:20 PM59 °FRain showers. Partly sunny.21 mph82%29.56 "HgN/A
4:50 PM63 °FSprinkles. Partly sunny.15 mph73%29.53 "HgN/A
4:20 PM61 °FRain showers. Partly sunny.15 mph77%29.53 "HgN/A
3:50 PM63 °FThunderstorms. Partly sunny.15 mph73%29.53 "HgN/A
3:20 PM63 °FPartly sunny.16 mph68%29.53 "HgN/A
2:50 PM63 °FScattered clouds.20 mph68%29.50 "HgN/A
2:20 PM63 °FScattered clouds.18 mph59%29.50 "HgN/A
1:50 PM63 °FScattered clouds.18 mph64%29.50 "HgN/A
1:20 PM63 °FScattered showers. Scattered clouds.15 mph73%29.50 "HgN/A
12:50 PM61 °FSprinkles. Broken clouds.14 mph77%29.50 "HgN/A
12:20 PM61 °FBroken clouds.12 mph83%29.50 "HgN/A
11:50 AM59 °FSprinkles. Broken clouds.13 mph82%29.50 "HgN/A
11:20 AM61 °FPartly sunny.15 mph77%29.50 "HgN/A
10:50 AM59 °FPartly sunny.12 mph82%29.50 "HgN/A
10:20 AM59 °FBroken clouds.12 mph88%29.50 "HgN/A
9:50 AM59 °FPartly sunny.13 mph88%29.50 "HgN/A
9:20 AM57 °FScattered showers. Scattered clouds.9 mph94%29.50 "HgN/A
8:50 AM57 °FScattered clouds.9 mph94%29.50 "HgN/A
8:20 AM57 °FPartly sunny.9 mph94%29.50 "HgN/A
Weather by CustomWeather, © 2014

See weather overviewHow to use our weather pages